Regional Weather Roundup
Issued by NWS Austin/San Antonio, TX

Home | Current Version | Previous Version | Text Only | Print | Product List | Glossary On
Versions: 1 2 3 4 5 6 7 8 9 10 11 12 13 14 15 16 17 18 19 20 21 22 23 24 25 26 27 28 29 30 31 32 33 34 35 36 37 38 39 40 41 42 43 44 45 46 47 48 49 50
000
ASUS44 KEWX 280011
RWREWX
SOUTH TEXAS REGIONAL WEATHER ROUNDUP
NATIONAL WEATHER SERVICE AUSTIN/SAN ANTONIO TX
700 PM CDT WED MAY 27 2020

NOTE: "FAIR" INDICATED FEW OR NO CLOUDS BELOW 12,000 FEET WITH NO
SIGNIFICANT WEATHER AND/OR OBSTRUCTIONS TO VISIBILITY.

* - THESE STATIONS ARE NOT NWS OR FAA STATIONS...AND ARE NOT SUBJECT
    TO NWS AND FAA QUALITY CONTROL.

TXZ171-172-183>190-280100-
TEXAS HILL COUNTRY AND EDWARDS PLATEAU

CITY           SKY/WX    TMP DP  RH WIND       PRES   REMARKS
JUNCTION       CLOUDY    90  55  30 VRB3      29.79R
6HR MIN TEMP:  90; 6HR MAX TEMP:  93;

*LLANO         CLOUDY    68  64  88 E14G21    29.86F
BURNET         TSTM      66  63  90 E15G26    29.86S FOG
6HR MIN TEMP:  67; 6HR MAX TEMP:  88; 6HR PCP:  0.47;

*HORSESHOE BAY TSTM      70  66  88 N18G28    29.92R
*LAGO VISTA    TSTM      69  67  92 NE8       29.86R
6HR MIN TEMP:  67; 6HR MAX TEMP:  89; 6HR PCP:  0.05;

*KERRVILLE     MOSUNNY   87  64  46 S10       29.80R
6HR MIN TEMP:  84; 6HR MAX TEMP:  91;

*FREDERICKSBRG TSTM      79  56  45 W26G37    29.87R VSB 1
6HR MIN TEMP:  79; 6HR MAX TEMP:  88;

*ROCKSPRINGS   CLOUDY    88  57  35 S10G21    29.85F
*BOERNE        MOSUNNY   86  61  42 S12       29.81S
HONDO          SUNNY     89  65  44 S14       29.75F HX  91
6HR MIN TEMP:  86; 6HR MAX TEMP:  91;

*UVALDE          N/A     90  64  41 S12       29.77S HX  92
6HR MIN TEMP:  86; 6HR MAX TEMP:  92;

DEL RIO        SUNNY     99  58  25 SE15      29.69F HX  98
6HR MIN TEMP:  94; 6HR MAX TEMP: 101;

*LAUGHLIN AFB  SUNNY     96  59  29 E16       29.70F HX  95
6HR MIN TEMP:  91; 6HR MAX TEMP:  97;

*SPOFFORD      NOT AVBL
*EAGLE PASS    SUNNY     93  64  38 SE14G22   29.72S HX  95
CARRIZO SPRGS  SUNNY     91  63  38 S15       29.72F HX  92
$$

TXZ173-191>194-202-209-217>225-228-280100-
CENTRAL AND SOUTH CENTRAL TEXAS

CITY           SKY/WX    TMP DP  RH WIND       PRES   REMARKS
GEORGETOWN     LGT RAIN  72  67  84 N12G17    29.90R
6HR MIN TEMP:  72; 6HR MAX TEMP:  89; 6HR PCP:  0.01;

*TAYLOR        CLOUDY    71  66  84 SE6       29.84R
6HR MIN TEMP:  71; 6HR MAX TEMP:  89; 6HR PCP:  0.01;

AUSTIN/BERGSTM PTSUNNY   76  66  71 NE12      29.81R
6HR MIN TEMP:  76; 6HR MAX TEMP:  93;

AUSTIN/MABRY   CLOUDY    76  64  66 VRB6      29.83R THUNDER
6HR MIN TEMP:  76; 6HR MAX TEMP:  91;

*PFLUGERVILLE  CLOUDY    72  64  78 E6        29.85R
SAN MARCOS     MOSUNNY   87  67  51 S10       29.80R HX  90
6HR MIN TEMP:  86; 6HR MAX TEMP:  92;

NEW BRAUNFELS  SUNNY     89  65  44 S13       29.78R HX  91
6HR MIN TEMP:  87; 6HR MAX TEMP:  93;

*RANDOLPH AFB  SUNNY     89  63  41 S10       29.77S HX  90
6HR MIN TEMP:  86; 6HR MAX TEMP:  91;

*SEGUIN        MOSUNNY   87  67  51 S9        29.82S
6HR MIN TEMP:  85; 6HR MAX TEMP:  90;

SAN ANTONIO    MOSUNNY   89  64  43 SE15      29.77F HX  90
6HR MIN TEMP:  87; 6HR MAX TEMP:  92;

STINSON FIELD  MOSUNNY   88  67  49 S13G18    29.74F HX  91
6HR MIN TEMP:  85; 6HR MAX TEMP:  90;

*KELLY FIELD   MOSUNNY   89  67  48 S15       29.75S HX  91
6HR MIN TEMP:  87; 6HR MAX TEMP:  91;

*PLEASANTON    MOSUNNY   91  68  46 S12       29.76F HX  94
6HR MIN TEMP:  89; 6HR MAX TEMP:  93;

*KENEDY        SUNNY     88  70  54 S15       29.79S HX  93
6HR MIN TEMP:  87; 6HR MAX TEMP:  91;

*LA GRANGE     CLOUDY    75  65  70 SE9       29.83R
6HR MIN TEMP:  75; 6HR MAX TEMP:  91;

*GIDDINGS      CLOUDY    73  63  71 SE10      29.85R
6HR MIN TEMP:  70; 6HR MAX TEMP:  87;

*GONZALES      CLOUDY    89  67  47 S7        29.79S HX  92
6HR MIN TEMP:  86; 6HR MAX TEMP:  92;

$$

TXZ163>164-176>182-195>201-210>213-226-227-235-280100-
SOUTHEAST TEXAS

CITY           SKY/WX    TMP DP  RH WIND       PRES   REMARKS
COLLEGE STN    LGT RAIN  69  66  90 VRB5      29.85R
6HR MIN TEMP:  65; 6HR MAX TEMP:  86; 6HR PCP:  0.69;

*BRYAN         CLOUDY    71  66  83 S12G18    29.85R
6HR MIN TEMP:  65; 6HR MAX TEMP:  85; 6HR PCP:  0.53;

*CALDWELL      NOT AVBL
*CROCKETT      NOT AVBL
*BRENHAM       CLOUDY    71  66  85 S9        29.86R
HUNTSVILLE     CLOUDY    71  63  75 SE3       29.86R
6HR MIN TEMP:  69; 6HR MAX TEMP:  87; 6HR PCP:  0.20;

CONROE         CLOUDY    67  63  87 S12       29.90R
6HR MIN TEMP:  64; 6HR MAX TEMP:  88; 6HR PCP:  0.36;

HOUSTON BUSH   CLOUDY    68  64  87 SE10      29.90R
6HR MIN TEMP:  65; 6HR MAX TEMP:  90; 6HR PCP:  0.46;

HOUSTON HOBBY  CLOUDY    70  64  81 SE16      29.90F
6HR MIN TEMP:  67; 6HR MAX TEMP:  90; 6HR PCP:  1.41;

*HOUSTON SW AP CLOUDY    65  65 100 SE12      29.91F
6HR MIN TEMP:  64; 6HR MAX TEMP:  88; 6HR PCP:  0.01;

PEARLAND       CLOUDY    70  64  81 SE13      29.93F
6HR MIN TEMP:  66; 6HR MAX TEMP:  90; 6HR PCP:  1.35;

HOUSTON HOOKS  LGT RAIN  67  61  81 SE10G20   29.89R
6HR MIN TEMP:  64; 6HR MAX TEMP:  87; 6HR PCP:  0.66;

ELLINGTON FLD  NOT AVBL
SUGAR LAND     CLOUDY    70  65  84 SE10G21   29.89F
6HR MIN TEMP:  66; 6HR MAX TEMP:  90; 6HR PCP:  0.47;

*HOUSTON EXEC  CLOUDY    70  64  83 SE16      29.90R
*CLEVELAND MUN CLOUDY    67  64  91 S6        29.90R
6HR MIN TEMP:  65; 6HR MAX TEMP:  88; 6HR PCP:  0.34;

*WHARTON       SUNNY     71  62  72 E10       29.90R
6HR MIN TEMP:  71; 6HR MAX TEMP:  88;

*COLUMBUS      FAIR      71  67  86 E10       29.87F
6HR MIN TEMP:  68; 6HR MAX TEMP:  88; 6HR PCP:  0.12;

*EAGLE LAKE    CLOUDY    73  68  85 E12       29.87
6HR MIN TEMP:  68; 6HR MAX TEMP:  91; 6HR PCP:  0.14;

$$

TXZ214>216-236>238-280100-
THE UPPER TEXAS COAST

CITY           SKY/WX    TMP DP  RH WIND       PRES   REMARKS
*ORANGE        RAIN      68  64  87 SW8       29.99R
6HR MIN TEMP:  68; 6HR MAX TEMP:  89; 6HR PCP:  0.22;

PORT ARTHUR    HVY RAIN  66  65  96 S9        29.97F FOG
6HR MIN TEMP:  66; 6HR MAX TEMP:  88; 6HR PCP:  0.37;

GALVESTON      CLOUDY    71  67  87 NE14      29.95F
6HR MIN TEMP:  70; 6HR MAX TEMP:  87; 6HR PCP:  0.47;

ANGLETON       CLOUDY    70  64  81 NE12      29.91F
6HR MIN TEMP:  69; 6HR MAX TEMP:  88; 6HR PCP:  0.01;

*BAY CITY      MOSUNNY   78  67  69 NE15      29.89S
PALACIOS       SUNNY     83  72  69 SE10      29.86R
6HR MIN TEMP:  83; 6HR MAX TEMP:  86;

$$

TXZ229>234-239>247-280100-
TEXAS COASTAL BEND AND RIO GRANDE PLAINS

CITY           SKY/WX    TMP DP  RH WIND       PRES   REMARKS
VICTORIA       SUNNY     86  68  54 SE15      29.82F
6HR MIN TEMP:  86; 6HR MAX TEMP:  92;

*BEEVILLE      SUNNY     89  75  64 SE12      29.77S HX  99
6HR MIN TEMP:  88; 6HR MAX TEMP:  91;

ROCKPORT       SUNNY     84  71  65 S9        29.80S
6HR MIN TEMP:  84; 6HR MAX TEMP:  87;

*PORT ARANSAS  SUNNY     82  74  77 SE10      29.81S
6HR MIN TEMP:  82; 6HR MAX TEMP:  86;

*PORT LAVACA   SUNNY     86  73  65 SE8       29.84S HX  92
6HR MIN TEMP:  85; 6HR MAX TEMP:  89;

*INGLESIDE     SUNNY     85  72  64 S14       29.79S HX  91
CORPUS CHRISTI MOSUNNY   84  74  71 SE12      29.77F HX  91
6HR MIN TEMP:  84; 6HR MAX TEMP:  88;

CORPUS NAS     MOSUNNY   85  71  63 SE14      29.78F HX  90
6HR MIN TEMP:  85; 6HR MAX TEMP:  88;

*ROBSTOWN      SUNNY     89  72  56 SE10      29.78S HX  95
6HR MIN TEMP:  88; 6HR MAX TEMP:  91;

ALICE          SUNNY     91  69  48 S14       29.76F HX  96
6HR MIN TEMP:  89; 6HR MAX TEMP:  94;

KINGSVILLE NAS MOSUNNY   91  68  46 S10       29.76F HX  95
6HR MIN TEMP:  89; 6HR MAX TEMP:  94;

COTULLA        SUNNY     92  69  47 S13G21    29.73F HX  97
6HR MIN TEMP:  89; 6HR MAX TEMP:  94;

LAREDO         SUNNY     92  70  48 SE17      29.74F HX  97
6HR MIN TEMP:  87; 6HR MAX TEMP:  93;


USA.gov is the U.S. government's official web portal to all federal, state and local government web resources and services.